OMD185 KFLL-KBYH

Flight info

Callsign OMD185
Flight time 2h 4m
Altitude 38000
Route HROCK2 SMELZ Q116 JAWJA GRAIV FIBER KISTS
Aircraft A320/M-SDE3FGHIRWY/LB1

Departure

Time 2026-05-03 22:36
Airport Fort Lauderdale Hollywood International Airport (KFLL)

Arrival

Time 2026-05-04 00:40
Airport Arkansas International Airport (KBYH)
Time Latitude Longitude Altitude Speed Heading
2026-05-03 21:36 26.07876 -80.15446 16 ft 0 kts 179°
2026-05-03 21:44 26.07885 -80.15446 16 ft 3 kts 180°
2026-05-03 21:44 26.07905 -80.15446 18 ft 3 kts 180°
2026-05-03 21:44 26.07919 -80.15446 17 ft 0 kts 184°
2026-05-03 21:47 26.07914 -80.15436 17 ft 5 kts 119°
2026-05-03 21:47 26.07899 -80.15387 16 ft 8 kts 122°
2026-05-03 21:47 26.07884 -80.15378 16 ft 0 kts 170°
2026-05-03 22:09 26.07883 -80.15377 16 ft 1 kts 171°
2026-05-03 22:09 26.07877 -80.15376 16 ft 2 kts 171°
2026-05-03 22:09 26.07872 -80.15376 16 ft 1 kts 174°
2026-05-03 22:10 26.07871 -80.15376 16 ft 0 kts 174°
2026-05-03 22:10 26.07829 -80.15381 16 ft 14 kts 206°
2026-05-03 22:11 26.07818 -80.15403 16 ft 7 kts 257°
2026-05-03 22:11 26.07812 -80.15512 16 ft 18 kts 270°
2026-05-03 22:11 26.07813 -80.15671 16 ft 23 kts 270°
2026-05-03 22:11 26.07814 -80.15859 16 ft 26 kts 271°
2026-05-03 22:12 26.07815 -80.16071 17 ft 29 kts 271°
2026-05-03 22:12 26.07816 -80.16285 17 ft 27 kts 270°
2026-05-03 22:12 26.07806 -80.16434 17 ft 10 kts 268°
2026-05-03 22:12 26.07805 -80.16489 17 ft 0 kts 270°
2026-05-03 22:15 26.07805 -80.16503 17 ft 5 kts 269°
2026-05-03 22:15 26.07805 -80.16560 17 ft 3 kts 270°
2026-05-03 22:15 26.07805 -80.16568 17 ft 1 kts 270°
2026-05-03 22:16 26.07805 -80.16570 17 ft 0 kts 269°
2026-05-03 22:25 26.07805 -80.16584 17 ft 7 kts 269°
2026-05-03 22:25 26.07793 -80.16626 19 ft 0 kts 239°
2026-05-03 22:35 26.07772 -80.16647 17 ft 10 kts 199°
2026-05-03 22:35 26.07716 -80.16590 18 ft 12 kts 101°
2026-05-03 22:36 26.07696 -80.16449 20 ft 37 kts 87°
2026-05-03 22:36 26.07692 -80.16103 19 ft 96 kts 91°
2026-05-03 22:36 26.07675 -80.14699 256 ft 157 kts 88°
2026-05-03 22:36 26.07678 -80.13884 815 ft 158 kts 88°
2026-05-03 22:37 26.07729 -80.12637 1526 ft 165 kts 87°
2026-05-03 22:37 26.07792 -80.10833 2300 ft 191 kts 90°
2026-05-03 22:37 26.07887 -80.09804 2635 ft 206 kts 75°
2026-05-03 22:37 26.08478 -80.08259 3042 ft 229 kts 56°
2026-05-03 22:38 26.09649 -80.06968 3485 ft 249 kts 27°
2026-05-03 22:38 26.11289 -80.06217 3927 ft 266 kts 17°
2026-05-03 22:38 26.13081 -80.05507 4265 ft 278 kts 15°
2026-05-03 22:38 26.14965 -80.05087 5447 ft 277 kts
2026-05-03 22:39 26.16883 -80.05201 6404 ft 278 kts 346°
2026-05-03 22:39 26.18738 -80.05812 6768 ft 277 kts 337°
2026-05-03 22:39 26.20520 -80.06615 6947 ft 275 kts 327°
2026-05-03 22:39 26.22030 -80.07885 7011 ft 271 kts 311°
2026-05-03 22:40 26.23148 -80.09547 7015 ft 267 kts 296°
2026-05-03 22:40 26.23870 -80.11440 7016 ft 266 kts 289°
2026-05-03 22:40 26.24544 -80.13364 7014 ft 267 kts 290°
2026-05-03 22:40 26.25227 -80.15288 7016 ft 267 kts 290°
2026-05-03 22:41 26.25802 -80.17225 7015 ft 266 kts 285°
2026-05-03 22:41 26.26332 -80.19201 7007 ft 266 kts 285°
2026-05-03 22:41 26.26866 -80.21196 7620 ft 270 kts 285°
2026-05-03 22:41 26.27400 -80.23200 8790 ft 271 kts 284°
2026-05-03 22:42 26.27940 -80.25231 9869 ft 275 kts 283°
2026-05-03 22:42 26.28499 -80.27338 10482 ft 295 kts 283°
2026-05-03 22:42 26.29100 -80.29620 10864 ft 319 kts 283°
2026-05-03 22:42 26.29749 -80.32081 11186 ft 343 kts 283°
2026-05-03 22:43 26.30437 -80.34683 11753 ft 355 kts 284°
2026-05-03 22:43 26.31144 -80.37338 12549 ft 359 kts 283°
2026-05-03 22:43 26.31860 -80.40021 13366 ft 363 kts 283°
2026-05-03 22:43 26.32580 -80.42723 14144 ft 366 kts 283°
2026-05-03 22:44 26.33308 -80.45460 14891 ft 369 kts 283°
2026-05-03 22:44 26.34038 -80.48218 15611 ft 372 kts 283°
2026-05-03 22:44 26.34772 -80.50994 16330 ft 375 kts 283°
2026-05-03 22:44 26.35508 -80.53795 17050 ft 378 kts 283°
2026-05-03 22:45 26.36250 -80.56617 17786 ft 381 kts 282°
2026-05-03 22:45 26.36987 -80.59421 18508 ft 384 kts 282°
2026-05-03 22:45 26.37738 -80.62291 19168 ft 387 kts 282°
2026-05-03 22:45 26.38506 -80.65218 19831 ft 389 kts 282°
2026-05-03 22:46 26.39273 -80.68122 20462 ft 392 kts 282°
2026-05-03 22:46 26.40236 -80.70946 21104 ft 401 kts 291°
2026-05-03 22:46 26.41715 -80.73631 21720 ft 411 kts 302°
2026-05-03 22:46 26.43620 -80.76046 22276 ft 418 kts 307°
2026-05-03 22:47 26.45608 -80.78436 22829 ft 421 kts 307°
2026-05-03 22:47 26.47608 -80.80843 23365 ft 424 kts 307°
2026-05-03 22:47 26.49620 -80.83269 23836 ft 427 kts 306°
2026-05-03 22:47 26.51641 -80.85711 24273 ft 430 kts 306°
2026-05-03 22:48 26.53676 -80.88172 24731 ft 432 kts 306°
2026-05-03 22:48 26.55722 -80.90652 25189 ft 434 kts 306°
2026-05-03 22:48 26.57771 -80.93140 25670 ft 437 kts 306°
2026-05-03 22:48 26.59835 -80.95647 26146 ft 439 kts 306°
2026-05-03 22:49 26.61908 -80.98164 26630 ft 441 kts 306°
2026-05-03 22:49 26.63989 -81.00694 27101 ft 443 kts 306°
2026-05-03 22:49 26.66080 -81.03234 27563 ft 445 kts 306°
2026-05-03 22:49 26.68181 -81.05790 28034 ft 447 kts 306°
2026-05-03 22:50 26.70293 -81.08361 28495 ft 450 kts 306°
2026-05-03 22:50 26.72385 -81.10907 28989 ft 451 kts 306°
2026-05-03 22:50 26.74503 -81.13481 29701 ft 448 kts 306°
2026-05-03 22:50 26.76605 -81.16035 30376 ft 445 kts 306°
2026-05-03 22:51 26.78693 -81.18574 30983 ft 442 kts 306°
2026-05-03 22:51 26.80775 -81.21106 31585 ft 440 kts 306°
2026-05-03 22:51 26.82842 -81.23628 32204 ft 438 kts 306°
2026-05-03 22:51 26.84896 -81.26136 32819 ft 436 kts 306°
2026-05-03 22:52 26.86939 -81.28638 33457 ft 434 kts 306°
2026-05-03 22:52 26.88969 -81.31125 34107 ft 431 kts 306°
2026-05-03 22:52 26.90987 -81.33597 34684 ft 429 kts 306°
2026-05-03 22:52 26.92997 -81.36059 35272 ft 426 kts 305°
2026-05-03 22:53 26.94997 -81.38507 35859 ft 424 kts 305°
2026-05-03 22:53 26.96985 -81.40937 36439 ft 422 kts 305°
2026-05-03 22:53 26.98938 -81.43323 36981 ft 420 kts 305°
2026-05-03 22:53 27.00908 -81.45734 37519 ft 418 kts 304°
2026-05-03 22:54 27.02867 -81.48141 37950 ft 417 kts 304°
2026-05-03 22:54 27.04890 -81.50483 38057 ft 422 kts 310°
2026-05-03 22:54 27.07272 -81.52479 38067 ft 431 kts 318°
2026-05-03 22:55 27.12383 -81.56157 38068 ft 441 kts 318°
2026-05-03 22:55 27.17576 -81.59876 38069 ft 443 kts 318°
2026-05-03 22:56 27.22763 -81.63614 38068 ft 442 kts 318°
2026-05-03 22:56 27.27911 -81.67339 38057 ft 442 kts 317°
2026-05-03 22:57 27.33076 -81.71083 38074 ft 442 kts 317°
2026-05-03 22:57 27.38250 -81.74828 38072 ft 441 kts 317°
2026-05-03 22:58 27.43414 -81.78570 38082 ft 441 kts 317°
2026-05-03 22:58 27.48884 -81.81873 38085 ft 453 kts 326°
2026-05-03 22:59 27.54673 -81.84692 38089 ft 453 kts 326°
2026-05-03 22:59 27.60465 -81.87503 38094 ft 453 kts 326°
2026-05-03 23:00 27.66213 -81.90299 38096 ft 452 kts 326°
2026-05-03 23:00 27.71989 -81.93124 38092 ft 452 kts 326°
2026-05-03 23:01 27.77760 -81.95944 38100 ft 452 kts 326°
2026-05-03 23:01 27.83539 -81.98771 38071 ft 452 kts 326°
2026-05-03 23:02 27.89309 -82.01596 38068 ft 452 kts 326°
2026-05-03 23:02 27.95069 -82.04425 38072 ft 451 kts 326°
2026-05-03 23:03 28.00820 -82.07256 38070 ft 450 kts 326°
2026-05-03 23:03 28.06560 -82.10081 38079 ft 449 kts 326°
2026-05-03 23:03 28.09276 -82.11714 38080 ft 437 kts 317°
2026-05-03 23:04 28.11762 -82.13666 38087 ft 433 kts 315°
2026-05-03 23:04 28.16688 -82.17605 38092 ft 433 kts 315°
2026-05-03 23:05 28.21574 -82.21517 38083 ft 433 kts 314°
2026-05-03 23:05 28.26504 -82.25454 38092 ft 433 kts 315°
2026-05-03 23:06 28.31433 -82.29394 38106 ft 433 kts 315°
2026-05-03 23:06 28.36363 -82.33341 38098 ft 433 kts 314°
2026-05-03 23:07 28.41283 -82.37285 38102 ft 433 kts 314°
2026-05-03 23:07 28.46199 -82.41240 38097 ft 433 kts 314°
2026-05-03 23:08 28.51111 -82.45193 38103 ft 433 kts 314°
2026-05-03 23:08 28.56033 -82.49146 38103 ft 433 kts 314°
2026-05-03 23:09 28.60943 -82.53100 38106 ft 433 kts 314°
2026-05-03 23:09 28.65849 -82.57058 38105 ft 432 kts 314°
2026-05-03 23:10 28.70763 -82.61022 38113 ft 432 kts 314°
2026-05-03 23:10 28.75641 -82.64969 38107 ft 432 kts 313°
2026-05-03 23:11 28.80541 -82.68941 38109 ft 433 kts 313°
2026-05-03 23:11 28.85456 -82.72918 38107 ft 433 kts 313°
2026-05-03 23:12 28.90368 -82.76902 38109 ft 433 kts 313°
2026-05-03 23:12 28.95281 -82.80889 38104 ft 433 kts 313°
2026-05-03 23:13 29.00195 -82.84882 38117 ft 433 kts 313°
2026-05-03 23:13 29.05101 -82.88886 38120 ft 433 kts 313°
2026-05-03 23:14 29.10009 -82.92889 38119 ft 433 kts 313°
2026-05-03 23:14 29.14914 -82.96893 38123 ft 433 kts 313°
2026-05-03 23:15 29.19786 -83.00874 38130 ft 433 kts 313°
2026-05-03 23:15 29.24678 -83.04880 38132 ft 432 kts 313°
2026-05-03 23:16 29.29561 -83.08877 38138 ft 431 kts 313°
2026-05-03 23:16 29.34438 -83.12875 38139 ft 430 kts 312°
2026-05-03 23:17 29.39307 -83.16871 38147 ft 429 kts 312°
2026-05-03 23:17 29.44158 -83.20856 38138 ft 428 kts 312°
2026-05-03 23:18 29.49000 -83.24848 38144 ft 427 kts 312°
2026-05-03 23:18 29.53791 -83.28808 38116 ft 427 kts 312°
2026-05-03 23:19 29.58638 -83.32801 38108 ft 426 kts 312°
2026-05-03 23:19 29.63455 -83.36774 38107 ft 426 kts 312°
2026-05-03 23:20 29.68235 -83.40730 38111 ft 426 kts 311°
2026-05-03 23:20 29.73048 -83.44720 38112 ft 427 kts 311°
2026-05-03 23:21 29.77869 -83.48714 38116 ft 427 kts 311°
2026-05-03 23:21 29.82691 -83.52715 38112 ft 427 kts 311°
2026-05-03 23:22 29.89921 -83.58722 38112 ft 427 kts 311°
2026-05-03 23:22 29.94738 -83.62734 38113 ft 427 kts 311°
2026-05-03 23:23 29.99557 -83.66743 38122 ft 427 kts 311°
2026-05-03 23:23 30.04364 -83.70752 38122 ft 427 kts 311°
2026-05-03 23:24 30.09178 -83.74772 38134 ft 427 kts 311°
2026-05-03 23:24 30.13991 -83.78793 38139 ft 427 kts 312°
2026-05-03 23:25 30.17982 -83.82140 38145 ft 426 kts 311°
2026-05-03 23:25 30.23390 -83.86998 38147 ft 422 kts 309°
2026-05-03 23:26 30.27949 -83.91273 38153 ft 422 kts 309°
2026-05-03 23:26 30.31758 -83.94809 38154 ft 423 kts 309°
2026-05-03 23:27 30.36370 -83.99046 38159 ft 423 kts 309°
2026-05-03 23:27 30.40991 -84.03279 38152 ft 424 kts 309°
2026-05-03 23:28 30.45611 -84.07524 38164 ft 424 kts 309°
2026-05-03 23:28 30.50231 -84.11781 38144 ft 424 kts 309°
2026-05-03 23:29 30.54850 -84.16044 38146 ft 424 kts 309°
2026-05-03 23:29 30.59471 -84.20314 38141 ft 424 kts 309°
2026-05-03 23:30 30.64091 -84.24588 38147 ft 425 kts 310°
2026-05-03 23:30 30.68717 -84.28867 38146 ft 425 kts 309°
2026-05-03 23:31 30.73347 -84.33156 38155 ft 426 kts 310°
2026-05-03 23:31 30.77946 -84.37425 38154 ft 426 kts 309°
2026-05-03 23:32 30.82571 -84.41735 38154 ft 426 kts 310°
2026-05-03 23:32 30.84889 -84.43894 38324 ft 427 kts 310°
2026-05-03 23:32 30.87228 -84.46070 38169 ft 433 kts 311°
2026-05-03 23:33 30.91936 -84.50444 38116 ft 434 kts 311°
2026-05-03 23:33 30.96663 -84.54850 38116 ft 435 kts 311°
2026-05-03 23:34 31.01385 -84.59279 38122 ft 436 kts 311°
2026-05-03 23:34 31.06023 -84.63813 38126 ft 435 kts 310°
2026-05-03 23:35 31.10611 -84.68427 38137 ft 435 kts 310°
2026-05-03 23:35 31.15215 -84.73039 38136 ft 436 kts 310°
2026-05-03 23:36 31.19841 -84.77626 38133 ft 437 kts 310°
2026-05-03 23:36 31.24482 -84.82220 38133 ft 437 kts 310°
2026-05-03 23:37 31.29107 -84.86830 38135 ft 437 kts 311°
2026-05-03 23:37 31.33705 -84.91416 38136 ft 438 kts 311°
2026-05-03 23:38 31.38341 -84.96043 38137 ft 438 kts 311°
2026-05-03 23:38 31.42977 -85.00678 38135 ft 438 kts 311°
2026-05-03 23:39 31.47611 -85.05323 38138 ft 438 kts 311°
2026-05-03 23:39 31.52246 -85.09975 38141 ft 438 kts 311°
2026-05-03 23:40 31.56885 -85.14624 38139 ft 439 kts 311°
2026-05-03 23:40 31.61527 -85.19286 38143 ft 439 kts 311°
2026-05-03 23:41 31.66161 -85.23962 38148 ft 439 kts 311°
2026-05-03 23:41 31.70797 -85.28638 38148 ft 440 kts 312°
2026-05-03 23:42 31.75408 -85.33289 38146 ft 440 kts 312°
2026-05-03 23:42 31.80043 -85.37979 38142 ft 440 kts 312°
2026-05-03 23:43 31.84687 -85.42674 38146 ft 440 kts 312°
2026-05-03 23:43 31.89322 -85.47374 38146 ft 440 kts 312°
2026-05-03 23:44 31.93953 -85.52072 38140 ft 440 kts 313°
2026-05-03 23:44 31.98582 -85.56777 38132 ft 439 kts 313°
2026-05-03 23:45 32.03213 -85.61487 38145 ft 440 kts 313°
2026-05-03 23:45 32.07848 -85.66206 38140 ft 440 kts 313°
2026-05-03 23:46 32.12474 -85.70932 38135 ft 440 kts 313°
2026-05-03 23:46 32.17069 -85.75633 38140 ft 440 kts 313°
2026-05-03 23:47 32.21697 -85.80373 38137 ft 440 kts 313°
2026-05-03 23:47 32.26329 -85.85119 38130 ft 441 kts 313°
2026-05-03 23:48 32.30960 -85.89877 38129 ft 441 kts 313°
2026-05-03 23:48 32.35585 -85.94637 38120 ft 441 kts 313°
2026-05-03 23:49 32.40217 -85.99404 38114 ft 441 kts 314°
2026-05-03 23:49 32.44852 -86.04171 38117 ft 441 kts 314°
2026-05-03 23:50 32.48704 -86.08144 38122 ft 441 kts 314°
2026-05-03 23:50 32.54078 -86.13709 38125 ft 441 kts 314°
2026-05-03 23:51 32.58698 -86.18493 38131 ft 441 kts 314°
2026-05-03 23:51 32.63327 -86.23286 38134 ft 441 kts 314°
2026-05-03 23:52 32.67941 -86.28082 38136 ft 441 kts 314°
2026-05-03 23:52 32.72555 -86.32882 38139 ft 441 kts 314°
2026-05-03 23:53 32.77171 -86.37674 38135 ft 440 kts 315°
2026-05-03 23:53 32.81776 -86.42475 38138 ft 440 kts 315°
2026-05-03 23:54 32.86346 -86.47251 38153 ft 440 kts 315°
2026-05-03 23:54 32.90950 -86.52061 38146 ft 440 kts 315°
2026-05-03 23:55 32.95545 -86.56868 38148 ft 440 kts 315°
2026-05-03 23:55 33.00139 -86.61689 38148 ft 440 kts 315°
2026-05-03 23:56 33.04724 -86.66510 38153 ft 439 kts 315°
2026-05-03 23:56 33.09303 -86.71327 38137 ft 438 kts 315°
2026-05-03 23:57 33.13843 -86.76109 38137 ft 438 kts 315°
2026-05-03 23:57 33.18403 -86.80915 38138 ft 437 kts 315°
2026-05-03 23:58 33.22961 -86.85718 38138 ft 436 kts 315°
2026-05-03 23:58 33.27502 -86.90523 38154 ft 436 kts 315°
2026-05-03 23:59 33.32040 -86.95339 38161 ft 436 kts 316°
2026-05-03 23:59 33.36580 -87.00151 38171 ft 436 kts 316°
2026-05-04 00:00 33.41115 -87.04963 38158 ft 435 kts 316°
2026-05-04 00:00 33.45638 -87.09772 38142 ft 434 kts 316°
2026-05-04 00:01 33.50123 -87.14548 38134 ft 434 kts 316°
2026-05-04 00:01 33.54625 -87.19354 38121 ft 433 kts 316°
2026-05-04 00:02 33.59113 -87.24157 38122 ft 432 kts 316°
2026-05-04 00:02 33.63593 -87.28951 38135 ft 431 kts 316°
2026-05-04 00:03 33.68011 -87.33803 38140 ft 430 kts 315°
2026-05-04 00:03 33.72379 -87.38694 38146 ft 429 kts 315°
2026-05-04 00:04 33.76745 -87.43568 38147 ft 428 kts 315°
2026-05-04 00:04 33.81110 -87.48424 38152 ft 427 kts 315°
2026-05-04 00:05 33.85470 -87.53275 38139 ft 426 kts 315°
2026-05-04 00:05 33.89790 -87.58093 38136 ft 425 kts 315°
2026-05-04 00:06 33.94120 -87.62930 38132 ft 424 kts 315°
2026-05-04 00:06 33.98440 -87.67765 38120 ft 424 kts 315°
2026-05-04 00:07 34.02753 -87.72598 38109 ft 423 kts 315°
2026-05-04 00:07 34.07054 -87.77424 38097 ft 422 kts 315°
2026-05-04 00:08 34.11350 -87.82246 38101 ft 421 kts 315°
2026-05-04 00:08 34.15634 -87.87062 38105 ft 421 kts 315°
2026-05-04 00:09 34.19906 -87.91879 38101 ft 420 kts 315°
2026-05-04 00:09 34.24172 -87.96692 38106 ft 420 kts 315°
2026-05-04 00:10 34.28410 -88.01477 38110 ft 419 kts 315°
2026-05-04 00:10 34.32671 -88.06298 38116 ft 419 kts 315°
2026-05-04 00:11 34.36924 -88.11119 38117 ft 419 kts 315°
2026-05-04 00:11 34.41180 -88.15950 38122 ft 419 kts 315°
2026-05-04 00:12 34.45424 -88.20774 38127 ft 418 kts 315°
2026-05-04 00:12 34.49663 -88.25602 38126 ft 418 kts 315°
2026-05-04 00:13 34.53902 -88.30428 38121 ft 417 kts 315°
2026-05-04 00:13 34.58134 -88.35248 38122 ft 417 kts 315°
2026-05-04 00:14 34.62357 -88.40078 38122 ft 417 kts 315°
2026-05-04 00:14 34.66573 -88.44908 38120 ft 416 kts 315°
2026-05-04 00:15 34.70782 -88.49731 38112 ft 416 kts 315°
2026-05-04 00:15 34.74956 -88.54522 38114 ft 415 kts 315°
2026-05-04 00:16 34.79145 -88.59350 38108 ft 415 kts 314°
2026-05-04 00:16 34.83330 -88.64181 38103 ft 414 kts 314°
2026-05-04 00:17 34.87535 -88.68988 38107 ft 414 kts 315°
2026-05-04 00:17 34.91765 -88.73766 38109 ft 414 kts 315°
2026-05-04 00:18 34.93856 -88.76118 37887 ft 406 kts 315°
2026-05-04 00:18 34.95923 -88.78446 37330 ft 404 kts 315°
2026-05-04 00:18 34.97288 -88.79989 36865 ft 403 kts 315°
2026-05-04 00:18 34.99340 -88.82316 36164 ft 403 kts 315°
2026-05-04 00:19 35.01391 -88.84647 35400 ft 403 kts 315°
2026-05-04 00:19 35.03454 -88.86990 34530 ft 406 kts 315°
2026-05-04 00:19 35.05518 -88.89363 33620 ft 408 kts 315°
2026-05-04 00:19 35.07577 -88.91751 32703 ft 409 kts 315°
2026-05-04 00:20 35.09640 -88.94151 31790 ft 409 kts 315°
2026-05-04 00:20 35.11699 -88.96550 30919 ft 409 kts 315°
2026-05-04 00:20 35.13756 -88.98954 30043 ft 409 kts 315°
2026-05-04 00:20 35.15803 -89.01350 29068 ft 408 kts 315°
2026-05-04 00:21 35.17948 -89.03602 28312 ft 403 kts 323°
2026-05-04 00:21 35.20194 -89.05550 27938 ft 393 kts 322°
2026-05-04 00:21 35.22414 -89.07503 27407 ft 392 kts 322°
2026-05-04 00:21 35.24468 -89.09659 27253 ft 388 kts 308°
2026-05-04 00:22 35.25811 -89.12526 27384 ft 391 kts 294°
2026-05-04 00:22 35.26734 -89.15613 27393 ft 393 kts 289°
2026-05-04 00:22 35.27551 -89.18810 27219 ft 393 kts 291°
2026-05-04 00:22 35.28848 -89.21726 26312 ft 391 kts 309°
2026-05-04 00:23 35.30797 -89.23949 25693 ft 382 kts 322°
2026-05-04 00:23 35.32942 -89.25884 25062 ft 384 kts 322°
2026-05-04 00:23 35.35073 -89.27826 24423 ft 380 kts 322°
2026-05-04 00:23 35.37185 -89.29762 23799 ft 378 kts 321°
2026-05-04 00:24 35.39281 -89.31692 23114 ft 375 kts 321°
2026-05-04 00:24 35.41358 -89.33605 22486 ft 372 kts 322°
2026-05-04 00:24 35.43419 -89.35498 21872 ft 369 kts 322°
2026-05-04 00:24 35.45463 -89.37376 21254 ft 365 kts 322°
2026-05-04 00:25 35.47489 -89.39237 20646 ft 362 kts 322°
2026-05-04 00:25 35.49497 -89.41084 20043 ft 359 kts 322°
2026-05-04 00:25 35.51488 -89.42913 19447 ft 356 kts 322°
2026-05-04 00:25 35.53462 -89.44723 18849 ft 353 kts 322°
2026-05-04 00:26 35.55400 -89.46502 18260 ft 350 kts 322°
2026-05-04 00:26 35.57342 -89.48291 17614 ft 348 kts 322°
2026-05-04 00:26 35.59266 -89.50070 17046 ft 346 kts 322°
2026-05-04 00:26 35.61183 -89.51843 16466 ft 344 kts 322°
2026-05-04 00:27 35.63092 -89.53610 15893 ft 342 kts 322°
2026-05-04 00:27 35.64991 -89.55368 15318 ft 341 kts 322°
2026-05-04 00:27 35.66877 -89.57114 14749 ft 339 kts 322°
2026-05-04 00:27 35.68754 -89.58850 14186 ft 337 kts 322°
2026-05-04 00:28 35.70626 -89.60583 13592 ft 335 kts 322°
2026-05-04 00:28 35.72483 -89.62303 13009 ft 333 kts 322°
2026-05-04 00:28 35.74331 -89.64016 12395 ft 331 kts 322°
2026-05-04 00:28 35.76162 -89.65716 11826 ft 329 kts 322°
2026-05-04 00:29 35.77984 -89.67408 11274 ft 327 kts 322°
2026-05-04 00:29 35.79793 -89.69084 10731 ft 324 kts 322°
2026-05-04 00:29 35.81593 -89.70752 10187 ft 322 kts 322°
2026-05-04 00:29 35.83356 -89.72390 9624 ft 320 kts 322°
2026-05-04 00:30 35.85125 -89.74038 9076 ft 318 kts 322°
2026-05-04 00:30 35.86887 -89.75679 8536 ft 316 kts 321°
2026-05-04 00:30 35.88638 -89.77308 8012 ft 314 kts 321°
2026-05-04 00:30 35.90378 -89.78926 7467 ft 312 kts 321°
2026-05-04 00:31 35.92108 -89.80537 6962 ft 310 kts 321°
2026-05-04 00:31 35.93823 -89.82137 6439 ft 309 kts 320°
2026-05-04 00:31 35.95531 -89.83732 5909 ft 307 kts 320°
2026-05-04 00:31 35.97225 -89.85313 5391 ft 304 kts 321°
2026-05-04 00:32 35.98891 -89.86866 4884 ft 292 kts 320°
2026-05-04 00:32 36.00458 -89.88323 4399 ft 274 kts 319°
2026-05-04 00:32 36.01944 -89.89707 3953 ft 260 kts 319°
2026-05-04 00:32 36.03358 -89.91028 3525 ft 249 kts 319°
2026-05-04 00:33 36.04713 -89.92294 3114 ft 239 kts 318°
2026-05-04 00:33 36.07245 -89.94718 2478 ft 215 kts 313°
2026-05-04 00:33 36.08445 -89.95635 2429 ft 204 kts 342°
2026-05-04 00:34 36.09852 -89.95732 2404 ft 202 kts
2026-05-04 00:34 36.11242 -89.95527 2062 ft 201 kts
2026-05-04 00:34 36.12606 -89.95589 2067 ft 194 kts 342°
2026-05-04 00:34 36.13792 -89.96358 2126 ft 190 kts 306°
2026-05-04 00:35 36.14357 -89.97731 2045 ft 175 kts 277°
2026-05-04 00:35 36.14335 -89.99177 1969 ft 166 kts 251°
2026-05-04 00:35 36.13934 -90.00489 1946 ft 161 kts 230°
2026-05-04 00:35 36.13154 -90.01472 1943 ft 162 kts 210°
2026-05-04 00:36 36.12083 -90.01880 1945 ft 163 kts 186°
2026-05-04 00:36 36.10994 -90.01604 1942 ft 168 kts 154°
2026-05-04 00:36 36.10214 -90.00485 1947 ft 180 kts 122°
2026-05-04 00:36 36.09635 -89.99112 1948 ft 179 kts 129°
2026-05-04 00:37 36.08944 -89.97845 1952 ft 177 kts 132°
2026-05-04 00:37 36.08236 -89.96604 1955 ft 176 kts 132°
2026-05-04 00:37 36.07500 -89.95400 1943 ft 173 kts 142°
2026-05-04 00:37 36.06525 -89.94615 1875 ft 167 kts 165°
2026-05-04 00:38 36.05415 -89.94392 1727 ft 156 kts 183°
2026-05-04 00:38 36.04384 -89.94393 1547 ft 140 kts 182°
2026-05-04 00:38 36.03458 -89.94393 1378 ft 127 kts 183°
2026-05-04 00:38 36.02626 -89.94393 1229 ft 115 kts 182°
2026-05-04 00:39 36.01847 -89.94393 1067 ft 112 kts 182°
2026-05-04 00:39 36.01067 -89.94394 907 ft 114 kts 186°
2026-05-04 00:39 36.00290 -89.94394 754 ft 111 kts 183°
2026-05-04 00:39 35.99500 -89.94389 587 ft 115 kts 182°
2026-05-04 00:40 35.98707 -89.94387 472 ft 114 kts 181°
2026-05-04 00:40 35.97910 -89.94383 295 ft 113 kts 184°
2026-05-04 00:40 35.97196 -89.94396 267 ft 85 kts 181°
2026-05-04 00:40 35.96755 -89.94399 267 ft 44 kts 180°
2026-05-04 00:41 35.96615 -89.94481 263 ft 25 kts 272°
2026-05-04 00:41 35.96609 -89.94688 266 ft 19 kts 267°
2026-05-04 00:41 35.96524 -89.94800 266 ft 20 kts 226°
2026-05-04 00:41 35.96417 -89.94937 267 ft 22 kts 225°
2026-05-04 00:42 35.96310 -89.95054 268 ft 16 kts 197°
2026-05-04 00:42 35.96236 -89.94989 267 ft 3 kts 139°
2026-05-04 00:42 35.96220 -89.94972 267 ft 6 kts 140°
2026-05-04 00:42 35.96171 -89.94956 267 ft 10 kts 178°
2026-05-04 00:43 35.96032 -89.94960 267 ft 26 kts 180°
2026-05-04 00:43 35.95833 -89.94961 263 ft 32 kts 180°
2026-05-04 00:43 35.95639 -89.94964 263 ft 18 kts 200°
2026-05-04 00:43 35.95555 -89.95073 262 ft 20 kts 222°
2026-05-04 00:44 35.95471 -89.95088 262 ft 12 kts 117°
2026-05-04 00:44 35.95470 -89.95074 262 ft 0 kts 87°